Caldwell, NJ

10:10 AM EDT on September 16, 2019 (GMT -0400)
Essex County

Weather History for KCDW - May, 2019

Change the Weather History Date:

Friday, May 3, 2019

  Actual Average Record
Temperature  
Mean Temperature 54 °F -  
Max Temperature 57 °F 68 °F 91 °F (2001)
Min Temperature 50 °F 45 °F 31 °F (1966)
Degree Days  
Heating Degree Days 12    
Growing Degree Days 4 (Base 50)    
Moisture  
Dew Point 51 °F    
Average Humidity 91    
Maximum Humidity 100    
Minimum Humidity 83    
Precipitation  
Precipitation 0.00 in - - ()
Sea Level Pressure  
Sea Level Pressure 30.10 in    
Wind  
Wind Speed 6 mph (East)    
Max Wind Speed 9 mph    
Max Gust Speed -    
Visibility 4 miles    
Events Rain    
Averages and records for this station are not official NWS values.
T = Trace of Precipitation, MM = Missing Value Source: NWS Daily Summary

Daily Weather History Graph

Daily Weather History Graph

Search for Another Location

Airport or City:

Astronomy

May. 03, 2019 Rise Set
Actual Time 5:53 AM EDT 7:55 PM EDT
Civil Twilight 5:23 AM EDT 8:25 PM EDT
Nautical Twilight 4:46 AM EDT 9:02 PM EDT
Astronomical Twilight 4:06 AM EDT 9:42 PM EDT
Moon 5:34 AM EDT (5/3) 6:39 PM EDT (5/3)
Length of Visible Light 15h 02m
Length of Day
14h 02m
Waning Crescent, 2% of the Moon is Illuminated
May 3
Waning Crescent
May 4
New
May 11
First Quarter
May 18
Full
May 26
Last Quarter

Hourly Weather History & Observations

Time (EDT) Temp. Dew Point Humidity Pressure Visibility Wind Dir Wind Speed Gust Speed Precip Events Conditions
12:31 AM 55.0 °F 52.0 °F 89% 30.20 in 6.0 mi South 9.2 mph - N/A   Overcast
12:53 AM 54.0 °F 51.1 °F 90% 30.21 in 6.0 mi SE 8.1 mph - N/A   Overcast
1:53 AM 53.1 °F 50.0 °F 89% 30.19 in 7.0 mi SSE 4.6 mph - N/A   Overcast
2:53 AM 53.1 °F 48.9 °F 86% 30.17 in 8.0 mi ESE 4.6 mph - N/A   Overcast
3:53 AM 52.0 °F 50.0 °F 93% 30.16 in 6.0 mi ESE 6.9 mph - N/A   Overcast
4:53 AM 52.0 °F 50.0 °F 93% 30.15 in 7.0 mi East 6.9 mph - N/A   Overcast
5:53 AM 51.1 °F 50.0 °F 96% 30.15 in 4.0 mi East 5.8 mph - N/A   Overcast
6:23 AM 51.1 °F 50.0 °F 96% 30.14 in 1.8 mi ENE 4.6 mph - N/A   Overcast
6:53 AM 50.0 °F 50.0 °F 100% 30.16 in 1.0 mi ENE 6.9 mph - N/A   Overcast
7:53 AM 51.1 °F 50.0 °F 96% 30.15 in 1.8 mi East 6.9 mph - N/A   Overcast
8:10 AM 51.1 °F 50.0 °F 96% 30.12 in 2.0 mi East 6.9 mph - N/A   Overcast
8:43 AM 51.1 °F 50.0 °F 96% 30.14 in 3.0 mi East 6.9 mph - N/A   Overcast
8:53 AM 51.1 °F 50.0 °F 96% 30.15 in 3.0 mi East 6.9 mph - N/A   Overcast
9:53 AM 52.0 °F 50.0 °F 93% 30.15 in 3.0 mi ESE 5.8 mph - N/A   Overcast
10:53 AM 53.1 °F 51.1 °F 93% 30.14 in 4.0 mi ESE 5.8 mph - N/A   Overcast
11:53 AM 53.1 °F 50.0 °F 89% 30.13 in 4.0 mi SE 3.5 mph - N/A   Overcast
12:53 PM 54.0 °F 51.1 °F 90% 30.13 in 3.0 mi Calm Calm - N/A   Overcast
1:03 PM 54.0 °F 50.0 °F 86% 30.11 in 4.0 mi Calm Calm - N/A   Overcast
1:53 PM 55.0 °F 51.1 °F 86% 30.10 in 3.0 mi SE 6.9 mph - 0.00 in Rain Light Rain
2:53 PM 55.9 °F 52.0 °F 87% 30.08 in 3.0 mi Calm Calm - 0.00 in   Overcast
3:53 PM 57.0 °F 52.0 °F 83% 30.04 in 3.0 mi ENE 4.6 mph - N/A   Haze
4:53 PM 57.9 °F 53.1 °F 84% 30.03 in 3.0 mi East 3.5 mph - N/A   Haze
5:53 PM 57.9 °F 53.1 °F 84% 30.02 in 3.0 mi Calm Calm - N/A   Haze
6:53 PM 57.0 °F 53.1 °F 87% 30.01 in 3.0 mi East 3.5 mph - N/A   Overcast
7:33 PM 57.0 °F 53.1 °F 87% 30.00 in 2.5 mi East 5.8 mph - N/A   Overcast
7:53 PM 55.9 °F 53.1 °F 90% 30.01 in 3.0 mi ENE 5.8 mph - N/A   Overcast
8:53 PM 55.9 °F 54.0 °F 93% 30.02 in 3.0 mi ENE 3.5 mph - N/A   Overcast
9:33 PM 55.9 °F 54.0 °F 93% 30.00 in 2.5 mi East 3.5 mph - N/A   Overcast
9:53 PM 55.9 °F 54.0 °F 93% 30.02 in 2.5 mi Calm Calm - N/A   Overcast
10:53 PM 55.0 °F 55.0 °F 100% 30.01 in 2.0 mi Calm Calm - N/A   Overcast
11:53 PM 55.0 °F 54.0 °F 96% 30.01 in 2.5 mi Calm Calm - N/A   Overcast